Location: Nelson
(47.1935°N, 121.0537°W)
Time: 07:26:18
(UTC+00:00)

BlueWalker 3 - Pass Details

Date: 08 December 2022
Orbit: 499 x 517 km, 53.2° (Epoch: 27 January)

Event Time Altitude Azimuth Distance (km) Brightness Sun altitude
Rises 01:25:14 0° 297° (WNW) 2,637 6.3 -11.5°
Reaches altitude 10° 01:27:31 10° 303° (WNW) 1,744 5.2 -11.9°
Maximum altitude 01:31:21 48° 18° (NNE) 679 2.3 -12.5°
Enters shadow 01:33:47 20° 86° (E) 1,226 3.3 -12.9°
